铱星星座 921星 (IRIDIUM 921)

导读 | 星芒AI

IRIDIUM 921 是 Iridium 卫星通信公司运营的低轨卫星网络中的一颗卫星,属于 Iridium Next 项目。该项目由 66 颗工作卫星组成,提供全球范围的语音和数据通信服务。IRIDIUM 921 于 2017 年发射,运行在极地轨道上,支持航空、航海、政府和应急通信等应用。该卫星采用先进设计,具备高可靠性和抗干扰能力,为偏远地区和移动用户提供稳定的通信连接。

基本信息
目录编号:
24873
目录名称:
IRIDIUM 921
国际标识:
1997-034E
轨道中心:
EARTH
卫星名称:
铱星星座 921星
卫星全名:
铱星星座 921星 (IRIDIUM 921)
卫星状态:
已陨落 最后检测时间 2025-02-13
发射日期:
1997-07-09 UTC
国别 :
美国 (US)
星等 :
--
轨道信息
数据来源 国际轨道数据
星历时间: 2025-02-13T23:51:01+0800
轨道信息已过期302天
半长轴: 6530.224km
偏心率: 0.001002
轨道倾角: 86.346°
近地点辐角 285.884°
升交点赤经 164.781°
平近点角 162.115°
近地点: 145.545km
远地点: 158.633km
周期: 87.529分钟
每日圈数: 16.451695
详细信息
平衡模式:
三轴稳定
覆盖范围:
全球
运营商:
铱星通信公司
运营商所在国:
美国
使用方式:
暂无
卫星简介
铱星(Iridium)是由共66个运作中的通信卫星组成的卫星通信系统。这个系统原本规划77个通信卫星,所以用原子序数为77的铱元素来命名。铱卫星允许人们使用手持型电子设备进行全球性的语音及数据通讯。该卫星已退役。